Regional Weather Roundup
Issued by NWS

Home | Current Version | Previous Version | Text Only | Print | Product List | Glossary Off
Versions: 1 2 3 4 5 6 7 8 9 10 11 12 13 14 15 16 17 18 19 20 21 22 23 24 25 26 27 28 29 30 31 32 33 34 35 36 37

000
ASUS45 KBOI 231410
RWRID
WEATHER ROUNDUP FOR IDAHO
NATIONAL WEATHER SERVICE BOISE ID
800 AM MDT THU OCT 23 2014

NOTE: "FAIR" INDICATES FEW OR NO CLOUDS BELOW 12000 FEET
WITH NO SIGNIFICANT WEATHER AND/OR OBSTRUCTIONS TO VISIBILITY

IDZ012-014-231500-
SOUTHWEST IDAHO


CITY           SKY/WX    TMP DP  RH WIND       PRES   REMARKS
BOISE          CLOUDY    53  44  71 SE10      30.01S
CALDWELL       CLOUDY    52  36  54 SE7       30.03R
MOUNTAIN HOME  CLOUDY    52  36  55 NE6       30.04R
$$

IDZ016-017-231500-
SOUTHCENTRAL IDAHO


CITY           SKY/WX    TMP DP  RH WIND       PRES   REMARKS
BURLEY         MOCLDY    50  29  44 S10       30.05S
JEROME         MOCLDY    51  28  41 E10       30.07R
TWIN FALLS     MOCLDY    52  29  41 S6        30.06S
$$

IDZ019>023-231500-
SOUTHEAST IDAHO


CITY           SKY/WX    TMP DP  RH WIND       PRES   REMARKS
IDAHO FALLS    CLOUDY    42  29  59 CALM      30.10S
POCATELLO      CLEAR     40  27  59 N7        30.09S
REXBURG        MOCLDY    39  32  76 NE3       30.10S
$$

IDZ006-010-011-018-031-032-231500-
CENTRAL IDAHO MOUNTAINS


CITY           SKY/WX    TMP DP  RH WIND       PRES   REMARKS
MCCALL         LGT RAIN  45  40  82 SE10      30.01S
HAILEY         CLOUDY    45  37  76 NW8       30.13R
STANLEY          N/A     42  37  82 S6        30.11R
SALMON         CLOUDY   N/A N/A N/A MISG        N/A
CHALLIS        LGT RAIN  48  38  68 VRB3      30.05R
$$

IDZ002-004-006-007-026-231500-
NORTHERN IDAHO


CITY           SKY/WX    TMP DP  RH WIND       PRES   REMARKS
LEWISTON       CLOUDY    57  46  66 E6        29.80S
LOWELL           N/A     49  48  97 CALM      29.90R
COEUR D`ALENE  CLOUDY    52  46  82 SE12      29.79S
MULLAN PASS    RAIN      37  37 100 VRB5      29.87S VSB 1   WCI  33
$$



USA.gov is the U.S. government's official web portal to all federal, state and local government web resources and services.